Location: Pic du Midi - T1M
(42.9366°N, 0.1426°E)
Time: 00:32:58
(UTC+01:00)

DX 1 - Pass Details

Date: 27 September 2021
Orbit: 618 x 631 km, 98.4° (Epoch: 15 October)

Event Time Altitude Azimuth Distance (km) Brightness Sun altitude
Rises 20:03:33 0° 28° (NNE) 2,897 ? -14.7°
Reaches altitude 10° 20:06:11 10° 44° (NE) 1,987 ? -15.1°
Enters shadow 20:07:04 14° 53° (NE) 1,736 ? -15.3°
